Location: Newark
(50.0953°N, 2.1719°E)
Time: 00:58:22
(UTC+00:00)

N. Korean satellite - Pass Details

Date: 24 January 2020
Orbit: 456 x 505 km, 97.2° (Epoch: 20 February)

Event Time Altitude Azimuth Distance (km) Brightness Sun altitude
Rises 06:06:50 0° 9° (N) 2,529 10.2 -14.1°
Reaches altitude 10° 06:08:54 10° 5° (N) 1,654 9.2 -13.8°
Maximum altitude 06:12:23 57° 287° (WNW) 576 6.5 -13.3°
Drops below altitude 10° 06:15:54 10° 208° (SSW) 1,668 9.1 -12.7°
Sets 06:18:00 0° 204° (SSW) 2,552 10.1 -12.4°
